Location: Newark
(7.0858°N, 171.3717°E)
Time: 12:10:46
(UTC+00:00)

Vanguard 1 Rocket - Pass Details

Date: 29 November 2020
Orbit: 655 x 4222 km, 34.3° (Epoch: 23 January)

Event Time Altitude Azimuth Distance (km) Brightness Sun altitude
Exits shadow 14:40:54 29° 16° (NNE) 5,191 11.0 -53.7°
Drops below altitude 10° 14:49:50 10° 41° (NE) 5,914 11.6 -51.7°
Sets 14:54:13 0° 49° (NE) 6,483 12.0 -50.8°
